Tracking 27371 objects as of 7-Jun-2023
HD Live streaming from Space Station
objects crossing your sky now

SL-14 DEB

Track SL-14 DEB now!
10-day predictions


NORAD ID: 19174
Int'l Code: 1978-100R
Perigee: 1,470.7 km
Apogee: 1,710.6 km
Inclination: 81.9 °
Period: 117.8 minutes
Semi major axis: 7961 km
RCS: 0.0241 m2 (small)
Launch date: October 26, 1978
Source: Commonwealth of Independent States (former USSR) (CIS)
Launch site: PLESETSK MISSILE AND SPACE COMPLEX (PKMTR)

Note: This is SATELLITE DEBRIS
Your satellite tracking list
Your tracking list is empty




NASA's NSSDC Master Catalog

Two Line Element Set (TLE):
1 19174U 78100R   23157.07735355  .00000059  00000-0  46967-3 0  9990
2 19174  81.9073  21.1141 0150656 273.7876 243.6880 12.22070606563466
Source of the keplerian elements: AFSPC